Dewpoint
3 -0 -5 -7 -11 -12 -11 -11 -10 -9 -9 -6 -6 -6 -5 -3 -1 -0 0 -1 2 3 6 6 7 7 7 6 7 8 9 9 8 8 7 5 6 6 4 1 1 3 8 12 12
4 4 5 5 5 3 -6 -11 -11 -10 -10 -8 -6 -5 -5 -3 -2 -2 -4 -2 2 2 7 6 6 7 7 7 7 7 7 7 6 6 7 5 6 6 5 4 3 3 8 13 13
2 4 3 4 3 1 2 3 -9 -11 -9 -9 -7 -6 -5 -4 -1 -6 0 -0 3 4 4 6 6 8 8 7 7 7 7 5 6 5 5 5 6 6 5 1 1 4 11 14 13
-5 -6 -6 -11 -13 -7 -4 -1 3 -1 -2 -7 -8 -6 -4 -2 -3 0 1 -0 2 4 7 6 7 7 7 7 7 8 7 5 7 6 6 6 5 6 5 6 3 2 9 13 13
3 2 2 1 -1 -5 -9 -21 -4 1 2 3 -4 -4 2 1 2 -5 1 2 3 7 7 7 8 7 7 7 7 8 6 6 4 6 7 5 6 6 6 3 4 -3 10 11 12
2 1 2 1 1 1 -2 -6 -3 -7 -7 0 4 0 3 4 -8 -7 -4 2 4 4 6 7 7 6 7 6 7 6 6 6 7 7 7 7 5 6 4 4 5 7 10 8 10
1 1 1 0 1 1 -2 -3 -8 -25 -23 -1 1 5 4 -1 -6 -3 2 1 3 4 5 5 6 7 6 6 5 6 6 6 6 7 8 7 7 7 3 4 4 4 9 5 7
1 0 -1 -1 -1 -5 -18 -29 -32 -32 -26 -10 2 5 4 -0 -8 -5 -1 3 4 4 4 5 6 6 7 6 3 4 5 7 3 7 7 7 8 5 4 4 5 3 3 7 5
-1 -1 -1 -0 -1 -8 -28 -32 -28 -25 -21 -10 3 4 2 -3 -4 -10 -6 2 4 5 5 6 6 7 6 7 7 6 6 6 6 7 7 7 8 5 5 4 5 2 2 6 6
-1 -1 -1 -4 -9 -25 -22 -12 -8 -2 -2 0 4 3 1 -4 -6 -4 -4 -0 5 6 7 7 7 7 7 7 8 8 7 6 6 8 8 8 8 5 4 4 4 4 1 3 6
-1 -2 -2 -5 -21 -26 -3 -3 -1 1 3 2 2 0 -6 -2 -3 -1 -1 2 4 6 6 5 6 6 6 5 6 5 5 6 4 6 8 9 8 6 5 4 4 4 3 1 2
-2 -3 -2 -3 -19 -17 -3 -13 0 -1 1 0 -1 1 -1 -6 -1 0 2 3 1 3 4 5 6 3 2 3 6 6 7 6 3 4 7 7 8 7 6 5 4 3 3 2 2
-2 -6 -5 -3 -17 -4 -21 -11 1 0 2 1 0 1 1 0 1 -1 3 3 2 3 3 4 2 3 3 4 6 5 6 6 4 4 6 8 8 8 6 6 5 3 3 3 2
-2 -7 -2 -3 -10 -14 -15 -9 -4 2 2 -1 -0 0 0 0 1 -1 -2 2 0 3 2 2 1 2 4 4 5 5 3 4 6 6 7 6 7 7 6 7 6 6 5 3 2
-3 -6 -7 -7 -10 -4 -5 -10 -2 1 -0 -10 -3 -3 -1 -0 -3 -1 -1 2 2 1 1 2 2 2 3 3 2 4 2 4 5 6 7 6 8 4 6 8 7 6 5 4 2
-3 -8 -7 -8 -10 -2 -4 -10 -0 0 -1 -4 -3 -0 1 -0 -1 0 1 0 -1 1 0 0 0 1 1 1 2 1 3 4 4 6 7 6 7 4 6 7 6 5 4 4 1
-5 -7 -7 -8 -7 -4 -2 -2 -1 0 -7 -3 -0 -1 -0 1 0 -1 1 1 2 3 3 1 1 -1 -0 2 2 3 5 6 7 7 7 4 6 4 0 2 4 5 3 2 -2
-5 -6 -9 -10 -5 -5 -4 -2 -1 -5 -2 -2 -1 -2 1 -1 0 -0 1 2 -0 -1 0 2 3 0 -1 1 2 4 4 6 8 7 5 3 6 3 -1 -1 -2 3 4 1 -3
-4 -6 -10 -10 -5 -7 -7 -1 -3 -0 -1 -1 -1 -1 0 1 2 -0 1 2 0 -1 2 2 1 -3 -2 -1 0 4 6 4 7 2 2 3 1 -3 -5 -3 -2 -2 3 3 -1
-4 -6 -11 -12 -10 -11 -6 -8 -2 -2 -5 -4 -1 -1 0 1 2 3 1 -1 -0 -1 -2 -1 2 -2 -1 -1 1 5 3 6 6 7 7 3 0 -1 -4 -4 -4 -4 -4 3 -1
-5 -5 -10 -9 -10 -5 -6 -5 -4 -6 -4 -4 -3 -1 -1 1 0 0 2 2 2 -0 -2 -1 0 -0 -1 2 2 6 7 6 5 6 6 3 -0 -4 -4 -6 -5 -5 -6 -4 -2
-4 -4 -9 -8 -8 -5 -5 -4 -6 -7 -9 -8 -4 -2 -3 -3 -2 0 0 -1 -4 -0 4 1 4 4 1 -3 -2 0 4 6 6 7 5 2 3 -4 -5 -5 -6 -5 -6 -2 -2
-3 -3 -7 -9 -8 -7 -6 -5 -9 -8 -8 -7 -6 -8 -5 -3 -3 -6 -7 -4 -5 -4 1 2 4 4 1 -2 -3 3 3 5 3 4 6 7 5 -4 -3 -2 -2 -2 -2 -1 0
-3 -5 -8 -8 -5 -9 -9 -7 -7 -9 -8 -8 -7 -8 -10 -8 -10 -7 -8 -9 -10 -11 -3 1 4 4 2 -1 -1 2 3 4 5 6 5 5 3 -1 -3 -1 1 1 1 1 3
-4 -4 -6 -7 -7 -7 -6 -7 -6 -7 -9 -8 -8 -8 -6 -5 -7 -11 -11 -10 -10 -9 -3 -1 1 3 3 1 -2 -1 1 2 5 4 5 2 1 -1 -4 -3 1 2 2 3 4
-4 -4 -4 -5 -6 -5 -5 -5 -5 -7 -7 -7 -8 -8 -7 -6 -7 -6 -9 -8 -7 -8 -6 -2 -1 -1 1 1 1 -1 -1 -1 0 2 1 1 1 -5 -3 -1 1 2 3 4 5
-4 -4 -4 -6 -5 -5 -5 -6 -7 -8 -7 -8 -8 -7 -6 -7 -8 -10 -9 -8 -8 -7 -7 -4 -2 0 1 1 2 3 -1 -2 -2 -1 -0 1 -1 -4 -3 -1 2 3 4 4 4
Wind_Speed
17 17 17 17 17 17 17 17 17 18 17 17 17 17 19 20 21 21 24 12 9 12 10 9 8 13 12 10 8 5 3 5 7 14 4 2 5 13 27 11 7 11 8 14 39
14 14 14 15 16 19 19 18 19 18 18 17 17 18 17 20 24 31 24 19 15 15 19 15 10 12 9 9 7 5 4 7 5 5 5 5 3 12 11 31 4 3 9 34 41
16 17 18 18 19 20 17 20 20 19 18 18 17 18 17 19 23 9 1 5 15 15 21 17 11 15 8 7 10 7 6 7 4 11 15 10 6 7 13 7 5 16 19 41 41
18 20 23 25 25 24 23 21 21 19 19 19 18 17 16 14 7 3 3 3 10 15 17 19 15 11 8 7 13 4 12 17 6 16 12 8 9 7 14 20 30 25 26 43 45
20 22 22 22 24 23 23 24 25 23 21 17 18 15 14 13 30 17 8 7 8 18 22 21 16 13 5 8 7 7 5 13 28 19 24 19 16 11 16 29 22 9 34 40 44
22 23 23 24 25 25 26 24 25 24 24 17 14 16 15 17 20 11 18 21 18 19 24 24 12 18 8 9 15 7 20 19 13 21 18 15 18 16 21 16 19 8 37 38 42
22 23 25 26 27 28 29 29 26 22 19 20 15 16 23 40 11 9 13 17 23 21 21 24 27 9 4 5 18 23 5 5 11 10 8 16 13 18 32 21 21 8 25 32 39
24 26 27 29 30 31 31 31 29 26 20 20 18 17 20 28 18 32 25 23 22 21 19 18 21 23 11 7 4 6 5 11 10 10 7 19 22 24 44 31 20 19 18 32 36
26 28 29 31 32 33 34 32 27 24 20 15 12 16 14 13 27 30 32 29 24 24 20 16 18 13 5 6 4 4 9 14 3 13 7 15 11 19 36 40 23 18 22 33 36
28 29 31 32 32 31 31 25 15 11 6 7 13 8 20 17 14 13 22 34 28 24 18 18 12 5 8 8 17 8 10 5 15 10 13 16 16 5 27 32 35 22 24 31 37
29 30 32 33 34 31 21 16 10 4 3 10 11 16 12 5 16 18 19 32 28 23 13 13 8 15 15 16 10 9 9 14 6 9 14 19 19 21 11 26 34 29 29 31 36
30 31 32 35 32 21 12 16 5 13 19 26 37 44 45 29 7 16 21 23 19 16 13 5 19 17 8 8 13 13 6 10 5 5 12 12 20 21 19 11 35 39 26 34 35
32 31 32 35 30 9 28 11 9 16 9 20 28 29 32 29 38 27 27 25 16 20 19 21 5 13 11 11 14 21 16 7 6 3 7 4 17 15 20 28 22 38 40 34 34
31 31 32 36 23 32 14 11 10 9 5 7 5 8 17 11 7 37 36 26 8 21 14 15 20 6 17 19 16 20 16 18 15 7 7 10 7 15 19 19 23 28 34 42 43
30 31 32 30 34 22 18 13 8 1 5 5 4 2 8 15 3 4 42 31 17 8 9 9 11 19 18 15 16 14 7 13 17 11 3 5 6 9 10 20 24 28 43 43 45
31 32 33 32 31 19 18 13 4 1 10 6 3 3 4 6 4 4 20 28 13 7 4 11 14 10 9 14 16 3 10 6 11 11 11 15 11 8 8 24 25 23 38 43 41
30 31 30 33 18 16 15 13 3 6 4 5 3 4 6 4 4 4 13 18 13 12 14 5 11 3 7 8 10 11 6 6 10 8 9 15 9 18 10 16 23 25 34 40 37
31 31 27 24 8 16 19 2 9 3 7 7 8 15 6 4 6 7 8 14 17 3 2 12 9 17 12 18 8 19 17 6 6 6 6 7 8 21 17 19 14 26 36 43 42
28 28 28 12 8 16 10 4 3 6 8 13 16 4 4 2 4 3 8 12 13 19 10 7 8 7 11 9 18 8 16 15 4 3 2 5 7 11 7 10 20 16 27 37 42
26 25 18 6 17 19 3 6 6 7 13 10 5 4 6 6 6 5 8 5 12 19 18 5 4 6 5 9 12 8 10 9 7 5 4 5 3 14 9 15 15 16 22 34 42
22 11 7 13 20 1 2 4 3 6 5 4 10 10 8 7 4 4 6 7 10 6 16 17 3 3 6 7 18 7 7 6 3 3 3 1 6 6 15 12 13 17 27 35 44
9 2 8 19 5 1 2 2 6 4 9 5 5 4 5 10 7 4 5 0 26 13 3 10 4 9 13 3 4 17 14 6 6 5 4 3 6 3 4 6 6 8 18 25 43
6 10 9 9 1 3 5 3 6 4 6 4 5 3 4 6 6 10 15 16 18 18 10 7 4 3 1 2 3 7 10 14 5 1 7 3 5 3 5 7 4 3 19 25 30
5 3 5 2 2 4 2 6 3 7 12 5 7 9 10 5 3 11 6 8 26 14 20 7 4 4 6 4 7 6 17 13 12 4 4 14 12 20 5 5 4 8 17 28 30
5 4 4 3 3 6 4 3 13 6 5 3 3 6 6 3 10 3 15 18 15 14 5 7 5 5 10 16 6 5 14 19 16 18 9 14 15 23 2 4 7 13 16 31 30
7 4 5 6 5 7 7 4 7 7 4 4 6 8 6 5 8 16 14 11 7 8 9 4 5 10 8 14 18 9 9 16 20 20 18 15 18 5 4 8 10 18 20 18 30
13 17 5 7 2 3 4 4 6 5 9 15 8 4 12 15 15 17 19 20 17 13 17 4 3 5 6 8 7 13 22 9 15 18 18 20 24 5 4 6 11 18 22 23 24
Wind_Direction
343 337 330 326 319 313 312 315 312 297 290 290 293 296 301 303 300 291 276 275 270 215 206 198 196 196 206 211 211 198 241 216 219 211 201 360 20 357 337 265 178 193 191 196 170
324 330 329 327 329 325 312 305 305 305 293 286 285 289 295 297 298 291 301 260 242 206 208 204 193 191 187 202 191 190 216 229 220 152 179 152 92 12 355 317 321 155 187 171 173
307 311 312 308 306 307 312 316 303 300 300 289 282 283 288 295 307 296 23 210 216 202 216 221 218 196 191 190 194 203 225 249 282 212 190 165 215 65 326 295 352 320 178 171 175
325 307 303 304 300 295 295 291 301 299 302 294 281 277 281 284 274 208 212 210 213 200 212 216 206 201 195 201 202 213 229 242 257 242 177 175 154 142 276 252 308 301 199 177 178
348 341 336 333 329 325 315 296 289 288 288 293 292 274 277 253 248 249 251 215 206 202 206 209 213 211 207 200 200 223 242 231 239 251 219 204 187 172 234 281 313 254 189 183 185
345 341 335 333 329 325 320 311 305 296 274 273 284 283 253 254 278 260 228 223 235 217 218 219 219 223 243 234 201 220 223 238 240 231 223 201 210 158 230 259 274 213 188 188 189
341 341 338 332 329 324 318 311 304 303 287 255 257 272 248 242 247 236 225 221 223 225 222 227 222 212 274 261 244 232 250 251 236 221 219 205 222 210 200 217 248 273 207 199 197
343 339 335 334 330 328 321 313 311 305 278 248 247 262 249 261 253 244 230 218 213 227 236 247 228 236 243 274 265 183 190 240 235 198 235 170 231 211 213 219 233 248 243 214 205
337 334 334 332 328 329 322 318 315 298 272 249 250 226 259 261 240 246 229 218 205 214 223 225 222 214 201 215 244 222 231 227 254 202 179 188 239 229 216 224 240 254 243 219 213
336 334 333 330 329 331 325 327 319 311 281 209 224 220 252 233 245 248 218 207 200 203 207 207 205 201 194 193 229 210 224 221 216 201 209 209 235 249 208 225 222 236 241 220 215
336 339 338 335 335 335 340 3 357 335 263 220 224 224 283 323 251 237 212 190 194 190 193 192 209 212 219 211 243 268 213 225 223 213 191 220 215 239 210 214 215 218 220 225 220
338 340 339 336 335 335 335 356 24 316 292 273 256 251 250 250 297 224 197 172 185 201 187 190 225 222 212 235 228 228 237 252 295 248 205 218 233 231 232 225 213 213 207 219 224
330 337 339 338 337 330 332 325 284 322 270 290 245 241 246 236 239 238 193 191 197 208 195 213 227 203 204 213 222 237 234 241 248 321 230 191 242 232 230 226 224 215 217 215 221
326 334 335 339 346 334 342 309 299 321 283 279 239 251 226 213 258 230 220 197 203 209 198 226 222 184 206 220 204 237 228 240 242 267 242 175 255 222 221 224 230 228 225 218 215
330 333 333 338 333 336 329 305 299 214 309 263 246 192 184 171 309 245 207 201 197 165 172 201 185 211 224 214 209 240 188 212 228 230 241 226 239 252 187 215 221 223 226 217 214
328 331 331 332 334 336 322 311 280 324 244 290 226 167 147 244 288 73 179 206 203 181 249 220 194 194 203 214 201 172 245 271 233 226 235 217 199 246 199 208 217 223 215 215 215
324 329 328 328 328 326 317 324 201 217 274 294 343 13 256 233 224 165 179 195 194 203 217 197 225 213 179 211 194 193 178 232 214 206 227 193 188 243 229 211 211 211 207 204 206
322 329 328 331 311 351 339 278 234 271 285 3 355 311 240 193 245 193 166 201 221 187 160 214 239 206 201 208 182 199 203 216 236 187 194 136 210 232 239 250 252 224 207 197 200
324 330 330 333 310 324 341 273 278 352 352 322 320 315 305 19 360 173 185 207 213 209 207 186 235 249 207 185 185 178 211 203 268 300 118 196 272 291 228 232 221 218 211 205 197
329 331 328 309 323 319 116 255 273 21 341 339 311 316 304 338 335 315 176 212 214 215 213 223 266 226 227 175 197 175 171 190 225 210 206 243 237 237 193 213 212 210 211 204 198
331 315 315 330 318 269 181 244 298 322 13 330 324 306 289 321 281 304 313 353 357 351 222 221 220 258 119 186 192 174 195 210 173 185 203 265 257 219 227 230 218 212 203 201 191
317 287 303 316 340 276 242 215 297 282 301 272 268 359 339 327 313 305 257 78 22 323 322 218 221 224 230 235 209 211 204 190 202 189 186 176 275 269 276 288 254 206 194 196 186
285 273 300 308 246 309 302 267 267 315 317 309 294 334 325 324 320 354 342 320 354 354 3 352 255 204 210 245 192 194 210 196 151 335 191 209 259 13 26 27 25 165 152 160 164
276 300 300 241 260 131 324 289 277 298 289 257 293 298 316 312 313 295 304 328 325 322 322 262 261 268 234 262 146 201 212 202 201 209 172 226 250 271 36 28 55 123 142 144 153
245 234 233 279 275 231 207 241 284 280 260 294 295 266 314 294 317 313 323 319 323 334 28 11 289 283 270 271 256 214 199 205 205 222 203 258 240 264 197 177 170 155 152 143 147
266 249 224 260 242 262 245 223 251 279 207 263 254 283 286 268 277 292 308 302 273 307 345 40 301 326 290 253 249 240 223 203 211 221 242 257 269 335 21 131 153 158 158 164 154
271 277 275 248 207 226 248 231 253 260 239 256 264 305 293 284 283 286 289 277 262 266 281 288 263 317 282 332 224 246 228 210 220 225 219 234 248 181 244 188 168 166 161 157 155
Height
1538 1535 1533 1530 1528 1525 1523 1521 1519 1517 1515 1514 1513 1511 1509 1506 1503 1501 1497 1497 1497 1498 1500 1501 1501 1502 1504 1506 1506 1508 1509 1505 1499 1497 1496 1499 1498 1497 1499 1501 1492 1491 1491 1491 1498
1536 1534 1531 1528 1525 1522 1520 1518 1516 1514 1512 1511 1510 1508 1506 1503 1500 1493 1492 1492 1494 1496 1498 1499 1500 1500 1503 1503 1505 1505 1506 1499 1492 1491 1493 1496 1496 1495 1502 1505 1495 1491 1491 1492 1495
1533 1530 1527 1524 1522 1519 1517 1515 1512 1510 1509 1507 1507 1505 1504 1501 1498 1487 1487 1487 1490 1494 1496 1499 1498 1499 1501 1502 1501 1499 1497 1495 1491 1489 1489 1492 1494 1491 1508 1504 1498 1498 1495 1492 1495
1529 1526 1522 1519 1516 1513 1511 1510 1508 1507 1505 1504 1502 1502 1501 1500 1501 1485 1486 1487 1488 1491 1494 1496 1497 1497 1497 1498 1496 1497 1491 1492 1491 1490 1490 1491 1493 1497 1505 1505 1497 1492 1494 1491 1492
1529 1525 1520 1516 1512 1508 1506 1503 1502 1501 1500 1499 1498 1498 1497 1495 1478 1484 1485 1486 1486 1487 1490 1492 1494 1494 1493 1491 1494 1493 1489 1488 1489 1489 1488 1490 1489 1492 1495 1496 1495 1485 1489 1491 1492
1527 1523 1518 1514 1510 1506 1501 1498 1495 1492 1492 1493 1494 1493 1494 1489 1474 1476 1477 1482 1482 1484 1486 1488 1489 1491 1490 1489 1490 1486 1485 1485 1486 1484 1486 1488 1487 1489 1489 1491 1496 1490 1489 1490 1492
1526 1521 1516 1511 1507 1502 1497 1493 1489 1487 1485 1485 1487 1489 1483 1467 1473 1473 1474 1475 1478 1480 1481 1483 1486 1488 1488 1487 1483 1484 1486 1483 1481 1481 1482 1487 1490 1480 1480 1484 1491 1490 1492 1492 1492
1524 1520 1514 1508 1503 1497 1491 1486 1483 1481 1478 1477 1480 1482 1465 1461 1466 1464 1469 1470 1473 1476 1478 1479 1481 1484 1485 1483 1481 1483 1485 1485 1472 1477 1479 1483 1472 1472 1475 1479 1480 1486 1489 1491 1492
1522 1517 1512 1506 1500 1493 1487 1482 1477 1473 1472 1473 1476 1476 1462 1455 1451 1452 1458 1462 1467 1471 1474 1476 1478 1478 1480 1481 1482 1478 1476 1478 1474 1472 1475 1477 1469 1463 1469 1472 1478 1480 1482 1486 1490
1521 1515 1508 1501 1495 1489 1482 1478 1472 1467 1467 1471 1472 1477 1457 1445 1446 1446 1448 1455 1462 1467 1471 1471 1472 1470 1473 1472 1466 1471 1474 1474 1470 1468 1471 1472 1467 1459 1461 1468 1471 1478 1479 1481 1484
1518 1512 1507 1498 1493 1488 1481 1475 1476 1472 1468 1464 1461 1450 1446 1444 1444 1444 1445 1451 1458 1461 1462 1464 1464 1460 1459 1462 1466 1470 1470 1466 1460 1459 1463 1461 1466 1460 1459 1462 1466 1469 1472 1474 1476
1516 1511 1504 1497 1490 1486 1484 1483 1482 1482 1458 1451 1447 1445 1439 1443 1442 1441 1443 1448 1451 1450 1457 1463 1451 1454 1461 1462 1464 1466 1468 1466 1461 1456 1459 1458 1459 1455 1455 1455 1454 1461 1465 1466 1473
1513 1507 1501 1495 1488 1486 1485 1482 1480 1478 1467 1431 1429 1428 1429 1434 1429 1435 1440 1441 1443 1446 1449 1447 1445 1451 1456 1460 1463 1459 1463 1469 1465 1457 1454 1456 1454 1451 1445 1448 1451 1453 1457 1462 1463
1511 1506 1500 1493 1489 1484 1480 1480 1479 1477 1471 1435 1424 1419 1421 1426 1425 1420 1431 1437 1440 1439 1446 1445 1446 1449 1452 1452 1456 1455 1455 1457 1459 1465 1460 1451 1449 1437 1434 1439 1440 1441 1442 1443 1447
1510 1504 1499 1493 1487 1482 1479 1477 1476 1477 1490 1426 1419 1417 1416 1419 1415 1412 1417 1429 1428 1434 1440 1434 1440 1444 1445 1441 1448 1447 1450 1455 1456 1458 1457 1451 1452 1421 1426 1430 1425 1425 1428 1433 1440
1506 1502 1496 1491 1487 1482 1477 1473 1474 1481 1472 1426 1416 1415 1419 1416 1414 1413 1417 1424 1426 1432 1431 1430 1432 1434 1432 1434 1439 1442 1451 1452 1451 1452 1445 1439 1438 1416 1421 1406 1408 1412 1419 1426 1434
1502 1498 1493 1490 1485 1481 1477 1474 1477 1470 1436 1423 1421 1420 1417 1415 1413 1413 1416 1420 1420 1428 1428 1431 1428 1427 1428 1434 1436 1443 1447 1450 1441 1435 1423 1420 1433 1407 1395 1394 1392 1397 1408 1418 1428
1498 1496 1491 1486 1482 1480 1478 1477 1468 1444 1440 1429 1431 1421 1418 1410 1410 1409 1414 1417 1418 1419 1427 1427 1428 1421 1416 1417 1427 1431 1436 1434 1419 1415 1423 1430 1424 1385 1385 1394 1391 1393 1397 1405 1413
1494 1491 1487 1485 1482 1481 1480 1474 1465 1458 1458 1448 1433 1426 1418 1413 1417 1408 1410 1410 1409 1412 1416 1422 1419 1404 1402 1407 1415 1423 1427 1424 1426 1426 1424 1419 1409 1382 1383 1380 1380 1384 1388 1393 1400
1490 1487 1481 1481 1479 1479 1480 1472 1468 1466 1464 1454 1445 1434 1427 1423 1420 1410 1406 1403 1403 1402 1404 1407 1412 1398 1396 1404 1407 1410 1412 1423 1421 1410 1409 1405 1405 1375 1376 1372 1372 1377 1376 1384 1391
1491 1488 1480 1477 1476 1474 1483 1475 1467 1465 1464 1462 1453 1445 1433 1428 1422 1418 1410 1410 1409 1402 1399 1402 1406 1400 1398 1398 1397 1406 1407 1411 1409 1406 1411 1418 1393 1371 1361 1363 1361 1364 1365 1373 1382
1487 1487 1480 1476 1476 1474 1476 1470 1468 1462 1459 1457 1454 1452 1450 1443 1433 1417 1414 1408 1422 1413 1403 1400 1402 1400 1395 1388 1388 1390 1395 1405 1396 1401 1406 1420 1395 1364 1366 1366 1362 1359 1361 1367 1370
1485 1481 1476 1475 1482 1477 1471 1467 1465 1461 1458 1455 1453 1449 1451 1449 1444 1436 1431 1419 1421 1421 1414 1412 1395 1393 1394 1392 1386 1388 1391 1391 1397 1398 1393 1395 1385 1366 1366 1365 1363 1362 1362 1368 1376
1483 1481 1474 1472 1472 1474 1478 1467 1463 1460 1456 1454 1452 1450 1447 1447 1444 1440 1435 1426 1425 1421 1415 1412 1398 1390 1384 1376 1379 1386 1381 1385 1386 1393 1400 1379 1369 1361 1368 1370 1371 1370 1371 1370 1378
1480 1476 1474 1476 1470 1470 1470 1468 1462 1460 1455 1453 1452 1449 1449 1450 1443 1436 1434 1427 1419 1416 1416 1418 1405 1393 1387 1380 1374 1372 1372 1375 1382 1381 1390 1370 1374 1356 1366 1369 1374 1378 1378 1372 1381
1479 1473 1470 1466 1466 1467 1464 1461 1458 1456 1458 1453 1451 1449 1448 1449 1446 1441 1439 1437 1431 1420 1422 1423 1416 1407 1389 1378 1374 1372 1368 1368 1372 1375 1374 1374 1369 1367 1367 1365 1370 1371 1376 1380 1377
1470 1470 1466 1462 1463 1465 1459 1456 1454 1453 1450 1448 1447 1447 1443 1440 1439 1436 1435 1432 1430 1430 1424 1428 1421 1407 1385 1380 1375 1375 1357 1367 1363 1364 1365 1370 1352 1364 1363 1366 1370 1372 1375 1382 1388